Location: ???????
(52.3000°N, 54.4667°E)
Time: 06:54:37
(UTC+00:00)

Cosmos 1190 Rocket - Pass Details

Date: 24 January 2020
Orbit: 756 x 781 km, 74.1° (Epoch: 24 February)

Event Time Altitude Azimuth Distance (km) Brightness Sun altitude
Rises 15:01:30 0° 337° (NNW) 3,266 7.5 -19.2°
Reaches altitude 10° 15:04:02 10° 345° (NNW) 2,338 6.6 -19.6°
Maximum altitude 15:09:02 40° 54° (NE) 1,142 4.5 -20.4°
Enters shadow 15:09:17 40° 62° (ENE) 1,147 4.4 -20.4°
